[[{"header":{"parameterUnit":"m.s-1","parameterCategory":1,"la1":30.2991,"la2":30.254,"lo1":-89.0895,"lo2":-89.0444,"dy":0.0017,"dx":0.0017,"nx":28,"ny":28,"refTime":"2024-10-01T21:00:00:Z","depth":0,"parameterNumber":2,"parameterNumberName":"U-component_of_WINDS"},"data":[0,0,0,0,0,0,0,0,0,0,0,0,0,0,0,0,0,0,0,0,0,0,0,0,0,0,0,0,0,0,0,0,0,0,0,0,0,0,0,0,0,0,0,0,0,0,0,0,0,0,0,0,0,0,0,0,0,0,-2.5942,-2.5943,0,-2.5952,-2.5952,-2.5952,-2.589,-2.5888,-2.5886,-2.5884,-2.5896,-2.5897,-2.5899,0,0,0,0,0,0,0,0,0,0,0,0,0,-2.5876,-2.5878,-2.5942,-2.5943,-2.5943,-2.5952,-2.5952,-2.5952,-2.589,-2.5888,-2.5886,-2.5884,-2.5895,-2.5897,-2.59,0,0,0,0,0,0,0,0,0,0,0,0,0,-2.5897,-2.5878,-2.5942,-2.5913,-2.591,-2.5952,-2.5952,-2.5952,-2.589,-2.5888,-2.5885,-2.5883,-2.5894,-2.5897,-2.59,-2.5971,0,0,-2.5909,-2.591,0,0,0,0,0,0,0,0,-2.5896,-2.59,-2.5917,-2.5915,-2.5912,-2.5917,-2.5932,-2.5958,-2.5891,-2.5898,-2.5884,-2.5881,-2.5905,-2.5907,-2.5914,-2.5971,-2.5972,-2.5909,-2.5911,-2.5912,-2.5913,0,0,0,0,0,0,0,-2.5895,-2.5899,-2.5946,-2.5917,-2.5914,-2.5901,-2.5901,-2.5937,-2.5916,-2.5897,-2.5893,-2.5894,-2.5903,-2.5912,-2.5914,-2.5972,-2.5909,-2.5912,-2.5913,-2.5914,-2.6091,-2.6093,0,0,0,0,0,0,-2.5897,-2.5898,-2.5946,-2.5946,-2.5897,-2.5904,-2.5904,-2.5918,-2.5916,-2.5913,-2.5897,-2.5892,-2.5908,-2.5911,-2.5914,-2.5998,-2.5912,-2.5915,-2.5916,-2.6088,-2.6091,-2.6094,0,0,0,0,0,0,-2.5895,-2.5901,-2.5945,-2.5921,-2.5926,-2.5908,-2.5924,-2.5919,-2.5928,-2.5915,-2.5912,-2.5909,-2.5906,-2.591,-2.5958,-2.5997,-2.5916,-2.5919,-2.6084,-2.6089,-2.6093,-2.6165,0,0,0,0,0,0,-2.5894,-2.5901,-2.5927,-2.5922,-2.5927,-2.5987,-2.5926,-2.5922,-2.5933,-2.5926,-2.5926,-2.5923,-2.5904,-2.5954,-2.5961,-2.6,-2.5921,-2.608,-2.6086,-2.6091,-2.6159,-2.6172,-2.6182,0,0,0,0,0,-2.5892,-2.5946,-2.5928,-2.5934,-2.5958,-2.599,-2.5993,-2.5969,-2.5936,-2.5962,-2.5955,-2.5923,-2.5993,-2.5959,-2.5966,-2.6007,-2.6078,-2.6085,-2.6091,-2.6154,-2.6169,-2.6182,0,0,0,0,0,0,-2.5956,-2.5945,-2.5925,-2.5979,-2.5986,-2.5979,-2.6011,-2.5986,-2.6002,-2.5995,-2.5966,-2.5967,-2.6019,-2.6018,-2.5981,-2.6077,-2.603,-2.6038,-2.6075,-2.609,-2.6101,-2.6099,-2.5923,0,0,0,0,0,-2.5976,-2.6002,-2.5992,-2.6041,-2.6046,-2.6028,-2.6041,-2.6023,-2.6028,-2.6031,-2.6027,-2.6034,-2.6058,-2.6074,-2.6095,-2.616,-2.616,-2.6192,-2.6204,-2.6213,-2.622,-2.6257,-2.6271,-2.6116,-2.6116,-2.6116,0,0,-2.6019,-2.6016,-2.6034,-2.6054,-2.6057,-2.6085,-2.603,-2.6062,-2.6083,-2.6036,-2.608,-2.6078,-2.6085,-2.6142,-2.6167,-2.6143,-2.6264,-2.6222,-2.623,-2.6231,-2.6265,-2.628,-2.6293,-2.6121,-2.612,-2.6119,0,0,-2.611,-2.6111,-2.6152,-2.6157,-2.6163,-2.6152,-2.6162,-2.616,-2.6157,-2.6201,-2.6167,-2.6193,-2.6234,-2.6241,-2.625,-2.635,-2.6322,-2.6358,-2.6417,-2.6453,-2.6465,-2.6476,-2.6512,-2.6525,-2.6365,-2.6366,-2.6366,0,-2.6162,-2.6202,-2.6177,-2.6212,-2.6223,-2.6183,-2.6226,-2.6232,-2.6245,-2.6254,-2.6227,-2.628,-2.6282,-2.6341,-2.6366,-2.6374,-2.6386,-2.6356,-2.6465,-2.6476,-2.6486,-2.652,-2.6533,-2.637,-2.6369,-2.6369,-2.6369,0,-2.6266,-2.6295,-2.6329,-2.6342,-2.6357,-2.6396,-2.6379,-2.6398,-2.638,-2.6373,-2.6421,-2.6422,-2.6444,-2.6457,-2.6439,-2.6515,-2.65,-2.647,-2.6421,-2.6505,-2.6537,-2.655,-2.6376,-2.6374,-2.6373,-2.6372,0,0,-2.6393,-2.6396,-2.6409,-2.6415,-2.6421,-2.6443,-2.6483,-2.6504,-2.6521,-2.6533,-2.6565,-2.6604,-2.6577,-2.6587,-2.6571,-2.6603,-2.6683,-2.6569,-2.6569,-2.659,-2.6768,-2.679,-2.6805,-2.6666,-2.6669,-2.667,-2.6768,0,-2.6483,-2.6547,-2.6529,-2.6594,-2.6622,-2.6587,-2.6621,-2.663,-2.6625,-2.6649,-2.6645,-2.6672,-2.6635,-2.6641,-2.6671,-2.6667,-2.6719,-2.666,-2.6697,-2.6699,-2.6694,-2.6821,-2.6843,-2.6935,-2.678,-2.6782,-2.6783,0,-2.6594,-2.661,-2.6679,-2.6683,-2.6694,-2.6725,-2.6744,-2.6768,-2.6778,-2.6773,-2.6787,-2.6766,-2.6806,-2.676,-2.6817,-2.6777,-2.6792,-2.6793,-2.6796,-2.6797,-2.6744,-2.6825,-2.6963,-2.6977,-2.6803,-2.6801,-2.68,0,-2.668,-2.672,-2.6766,-2.6774,-2.6779,-2.6802,-2.6806,-2.6813,-2.6829,-2.6847,-2.6857,-2.688,-2.6893,-2.6912,-2.6899,-2.6866,-2.6959,-2.691,-2.6956,-2.6957,-2.6975,-2.6974,-2.7116,-2.6987,-2.6987,-2.6987,-2.6986,0,-2.678,-2.6824,-2.6806,-2.6834,-2.6883,-2.6863,-2.6912,-2.6912,-2.692,-2.695,-2.6922,-2.695,-2.6931,-2.6959,-2.695,-2.6999,-2.7005,-2.7003,-2.6999,-2.7004,-2.7005,-2.7012,-2.7005,-2.699,-2.6989,-2.6989,-2.6988,0,-2.6883,-2.6872,-2.6921,-2.6924,-2.6926,-2.6962,-2.6965,-2.6992,-2.6988,-2.7026,-2.7033,-2.7026,-2.7058,-2.7047,-2.7081,-2.7075,-2.7138,-2.7127,-2.7134,-2.713,-2.7177,-2.7172,-2.7328,-2.7348,-2.7207,-2.7208,-2.7209,0,-2.6946,-2.6979,-2.6986,-2.7004,-2.701,-2.7039,-2.7055,-2.7038,-2.7056,-2.7073,-2.7099,-2.7129,-2.7151,-2.7204,-2.7202,-2.7229,-2.7218,-2.7271,-2.7222,-2.7227,-2.7219,-2.7216,-2.722,-2.728,-2.7282,-2.7283,-2.7284,0,-2.7061,-2.7055,-2.7079,-2.7102,-2.7122,-2.714,-2.7155,-2.7171,-2.7156,-2.7179,-2.7211,-2.7228,-2.7265,-2.7295,-2.732,-2.7325,-2.7303,-2.7301,-2.7312,-2.7317,-2.7319,-2.7319,-2.7159,-2.7296,-2.7295,-2.7294,-2.7293,-2.7293,-2.7145,-2.7174,-2.7184,-2.7212,-2.7223,-2.7238,-2.7265,-2.7265,-2.7291,-2.7319,-2.7309,-2.7346,-2.736,-2.7391,-2.7401,-2.7431,-2.7411,-2.7428,-2.7432,-2.7436,-2.7442,-2.7317,-2.7436,-2.7435,-2.7435,-2.7435,-2.7434,0,-2.7258,-2.7264,-2.729,-2.7313,-2.7336,-2.7315,-2.7332,-2.7353,-2.7386,-2.74,-2.7424,-2.7462,-2.7493,-2.7496,-2.7525,-2.7549,-2.7539,-2.7557,-2.7554,-2.7556,-2.7458,-2.7445,-2.7564,-2.7564,-2.7564,-2.7564,-2.7564,-2.7564,-2.7319,-2.7366,-2.7363,-2.7417,-2.7422,-2.7459,-2.747,-2.7486,-2.7497,-2.7542,-2.7567,-2.7569,-2.7579,-2.761,-2.7638,-2.7638,-2.765,-2.7671,-2.7667,-2.7576,-2.7563,-2.755,-2.7537,-2.7674,-2.7674,-2.7762,-2.7763,-2.7764]},{"header":{"parameterUnit":"m.s-1","parameterCategory":1,"la1":30.2991,"la2":30.254,"lo1":-89.0895,"lo2":-89.0444,"dy":0.0017,"dx":0.0017,"nx":28,"ny":28,"refTime":"2024-10-01T21:00:00:Z","depth":0,"parameterNumber":3,"parameterNumberName":"V-component_of_WINDS"},"data":[0,0,0,0,0,0,0,0,0,0,0,0,0,0,0,0,0,0,0,0,0,0,0,0,0,0,0,0,0,0,0,0,0,0,0,0,0,0,0,0,0,0,0,0,0,0,0,0,0,0,0,0,0,0,0,0,0,0,1.3614,1.3615,0,1.3664,1.3664,1.3665,1.3726,1.3727,1.3728,1.3729,1.3776,1.3777,1.3777,0,0,0,0,0,0,0,0,0,0,0,0,0,1.3569,1.357,1.3614,1.3615,1.3615,1.3664,1.3664,1.3665,1.3726,1.3727,1.3729,1.373,1.3776,1.3777,1.3777,0,0,0,0,0,0,0,0,0,0,0,0,0,1.3601,1.357,1.3614,1.3652,1.3656,1.3663,1.3664,1.3665,1.3726,1.3727,1.3729,1.373,1.3776,1.3777,1.3777,1.375,0,0,1.3779,1.3779,0,0,0,0,0,0,0,0,1.3599,1.3602,1.3646,1.3649,1.3654,1.369,1.3666,1.3694,1.3726,1.3699,1.3729,1.3731,1.3746,1.3749,1.3755,1.3753,1.3755,1.3779,1.3779,1.3779,1.3779,0,0,0,0,0,0,0,1.3597,1.3601,1.3634,1.3646,1.3651,1.3665,1.3671,1.3671,1.3714,1.3702,1.3706,1.3711,1.3749,1.3755,1.3757,1.3755,1.3779,1.3779,1.3779,1.378,1.3733,1.3732,0,0,0,0,0,0,1.3589,1.3598,1.3632,1.3635,1.3629,1.3665,1.3672,1.3677,1.3714,1.3721,1.371,1.3714,1.3753,1.3756,1.3759,1.373,1.3779,1.378,1.378,1.3735,1.3733,1.3731,0,0,0,0,0,0,1.3588,1.3592,1.363,1.3618,1.3624,1.3664,1.367,1.3677,1.3683,1.372,1.3728,1.3708,1.3754,1.3758,1.3752,1.3732,1.378,1.378,1.3737,1.3734,1.3732,1.3671,0,0,0,0,0,0,1.3587,1.3591,1.3582,1.3617,1.3624,1.3623,1.3668,1.3677,1.3684,1.369,1.3721,1.3727,1.3756,1.3751,1.3753,1.3734,1.3781,1.3739,1.3736,1.3733,1.3675,1.3667,1.366,0,0,0,0,0,1.3585,1.3562,1.3581,1.3585,1.3614,1.3622,1.3626,1.366,1.3682,1.3673,1.3697,1.3726,1.3734,1.375,1.3752,1.3733,1.374,1.3736,1.3733,1.3678,1.3669,1.366,0,0,0,0,0,0,1.3521,1.3567,1.3589,1.3577,1.3595,1.3633,1.3622,1.3649,1.366,1.3665,1.3706,1.3712,1.3701,1.3717,1.3734,1.3709,1.3741,1.3738,1.3699,1.369,1.3683,1.3678,1.3781,0,0,0,0,0,1.3507,1.351,1.355,1.3535,1.3544,1.3581,1.3586,1.3611,1.3631,1.3638,1.3662,1.3679,1.3686,1.3689,1.3697,1.3678,1.3685,1.3666,1.3659,1.3652,1.3648,1.3639,1.3631,1.372,1.372,1.372,0,0,1.3475,1.35,1.35,1.3523,1.3541,1.3542,1.3587,1.3587,1.3589,1.3638,1.3634,1.3652,1.3674,1.3662,1.3657,1.3674,1.3626,1.3648,1.3643,1.3642,1.3635,1.3626,1.3619,1.3718,1.3718,1.3718,0,0,1.3418,1.3438,1.3428,1.3445,1.3471,1.3496,1.3494,1.3527,1.3541,1.3538,1.3575,1.3577,1.3588,1.3602,1.3611,1.356,1.3587,1.3561,1.3522,1.3512,1.3505,1.3499,1.348,1.3473,1.3558,1.3558,1.3558,0,1.3375,1.338,1.3419,1.3418,1.3426,1.3473,1.3463,1.3477,1.3503,1.3508,1.3527,1.3541,1.3559,1.3551,1.3538,1.3544,1.3542,1.3557,1.3503,1.3497,1.3492,1.3474,1.3467,1.3554,1.3555,1.3555,1.3556,0,1.3326,1.3329,1.3318,1.3344,1.3351,1.3345,1.3382,1.3385,1.341,1.3433,1.3429,1.3453,1.3466,1.3466,1.349,1.3461,1.347,1.3496,1.3529,1.348,1.3464,1.3457,1.355,1.3551,1.3552,1.3553,0,0,1.3229,1.3277,1.3272,1.3285,1.3317,1.332,1.3316,1.333,1.3331,1.3349,1.3345,1.3353,1.3377,1.3387,1.3413,1.3404,1.3362,1.3431,1.3432,1.3416,1.333,1.3309,1.3301,1.338,1.3379,1.3378,1.3328,0,1.3177,1.3173,1.3209,1.3195,1.3198,1.3243,1.3239,1.3258,1.3279,1.3284,1.3308,1.3313,1.3344,1.335,1.3344,1.3368,1.3344,1.3372,1.3376,1.3376,1.3368,1.3293,1.3271,1.3222,1.3322,1.3321,1.332,0,1.3116,1.313,1.3117,1.3151,1.3153,1.3149,1.3165,1.317,1.3192,1.3208,1.3219,1.3249,1.3247,1.3279,1.3275,1.3293,1.3297,1.3309,1.3308,1.3309,1.3344,1.329,1.3207,1.3199,1.3311,1.3311,1.3312,0,1.3045,1.3061,1.3056,1.3065,1.3104,1.31,1.3116,1.314,1.3146,1.316,1.3165,1.3178,1.3184,1.3193,1.3226,1.3247,1.3217,1.3253,1.323,1.3229,1.322,1.322,1.3136,1.3225,1.3225,1.3225,1.3225,0,1.2982,1.2972,1.3025,1.3021,1.3011,1.3052,1.304,1.306,1.3081,1.3081,1.3121,1.312,1.3163,1.3167,1.3192,1.3185,1.3188,1.32,1.3206,1.3195,1.3194,1.3197,1.3201,1.3223,1.3223,1.3224,1.3224,0,1.2901,1.2936,1.2932,1.297,1.2979,1.297,1.3002,1.2999,1.3024,1.3024,1.3026,1.3064,1.307,1.3104,1.3118,1.3135,1.3118,1.3132,1.311,1.3115,1.3089,1.309,1.3003,1.2993,1.3089,1.3088,1.3088,0,1.2858,1.2851,1.2889,1.2892,1.2907,1.2912,1.2919,1.2959,1.2965,1.299,1.2984,1.2994,1.3004,1.3012,1.304,1.3051,1.3065,1.3034,1.3067,1.3056,1.3063,1.3063,1.3062,1.3026,1.3025,1.3024,1.3023,0,1.2778,1.2796,1.2805,1.2821,1.2829,1.2842,1.2858,1.2859,1.2903,1.2907,1.2915,1.2923,1.2938,1.2947,1.2963,1.2978,1.3007,1.3013,1.3008,1.2996,1.2983,1.2988,1.309,1.3014,1.3015,1.3016,1.3016,1.3016,1.2714,1.271,1.2736,1.2745,1.2762,1.2776,1.2776,1.2801,1.2808,1.2824,1.2847,1.2852,1.2874,1.2899,1.2912,1.2915,1.2932,1.2925,1.2923,1.292,1.2914,1.2984,1.2918,1.2918,1.2919,1.2919,1.2919,0,1.2635,1.2654,1.2662,1.2684,1.2691,1.272,1.2739,1.2743,1.2747,1.2766,1.2775,1.2784,1.2793,1.2822,1.2834,1.2831,1.2845,1.2833,1.2833,1.2835,1.2899,1.2901,1.2821,1.2821,1.2822,1.2822,1.2822,1.2822,1.2594,1.2589,1.261,1.2613,1.2633,1.2638,1.2647,1.266,1.2675,1.2684,1.2692,1.2712,1.2734,1.2748,1.2758,1.2766,1.2768,1.2751,1.2763,1.2822,1.2831,1.284,1.2843,1.2752,1.2751,1.27,1.2699,1.2699]}]]